[[{"header":{"parameterUnit":"m.s-1","parameterCategory":1,"la1":30.2991,"la2":30.254,"lo1":-89.0895,"lo2":-89.0444,"dy":0.0017,"dx":0.0017,"nx":28,"ny":28,"refTime":"2025-12-25T09:00:00:Z","depth":0,"parameterNumber":2,"parameterNumberName":"U-component_of_WINDS"},"data":[0,0,0,0,0,0,0,0,0,0,0,0,0,0,0,0,0,0,0,0,0,0,0,0,0,0,0,0,0,0,0,0,0,0,0,0,0,0,0,0,0,0,0,0,0,0,0,0,0,0,0,0,0,0,0,0,0,0,1.6079,1.608,0,1.6176,1.6177,1.6178,1.6186,1.6185,1.6184,1.6183,1.6287,1.629,1.6294,0,0,0,0,0,0,0,0,0,0,0,0,0,1.5903,1.5906,1.6078,1.608,1.6081,1.6176,1.6177,1.6179,1.6187,1.6185,1.6184,1.6183,1.6285,1.629,1.6294,0,0,0,0,0,0,0,0,0,0,0,0,0,1.5988,1.5907,1.6078,1.6096,1.6099,1.6176,1.6177,1.6179,1.6187,1.6185,1.6184,1.6182,1.6284,1.6289,1.6295,1.6362,0,0,1.6312,1.6315,0,0,0,0,0,0,0,0,1.5983,1.5994,1.6092,1.6095,1.6098,1.6167,1.6153,1.624,1.6187,1.6154,1.6183,1.6181,1.6248,1.6257,1.6279,1.6366,1.6371,1.6313,1.6316,1.6318,1.632,0,0,0,0,0,0,0,1.5977,1.599,1.6117,1.6094,1.6097,1.6101,1.6111,1.617,1.6209,1.6156,1.6157,1.6168,1.625,1.6273,1.6281,1.6372,1.6312,1.6317,1.6321,1.6323,1.6521,1.6523,0,0,0,0,0,0,1.5967,1.5985,1.6114,1.612,1.6035,1.6105,1.6117,1.6147,1.6208,1.6216,1.617,1.6168,1.6265,1.6275,1.6285,1.6368,1.6318,1.6324,1.6327,1.6519,1.6521,1.6523,0,0,0,0,0,0,1.5964,1.5979,1.611,1.6053,1.607,1.611,1.6144,1.615,1.6173,1.6218,1.6226,1.6186,1.6264,1.6277,1.6342,1.6371,1.6326,1.6331,1.6517,1.652,1.6522,1.6533,0,0,0,0,0,0,1.5959,1.5977,1.6002,1.6053,1.6073,1.6165,1.6145,1.6153,1.6182,1.6182,1.6236,1.6243,1.6264,1.6334,1.6348,1.6378,1.6336,1.6514,1.6518,1.6521,1.653,1.6536,1.654,0,0,0,0,0,1.5952,1.6002,1.6003,1.6019,1.6104,1.6166,1.6178,1.6199,1.6185,1.621,1.624,1.6242,1.6366,1.6341,1.6357,1.6389,1.6513,1.6517,1.6521,1.6528,1.6534,1.654,0,0,0,0,0,0,1.5954,1.6009,1.6011,1.6078,1.6117,1.6167,1.6201,1.6205,1.625,1.6248,1.6273,1.6286,1.635,1.6376,1.6347,1.6457,1.6438,1.6446,1.6437,1.6444,1.6449,1.6442,1.634,0,0,0,0,0,1.5961,1.6006,1.6052,1.6107,1.6127,1.616,1.6188,1.6201,1.6243,1.626,1.6294,1.6336,1.6384,1.6416,1.6463,1.6534,1.6547,1.6564,1.6569,1.6573,1.658,1.662,1.6629,1.6537,1.6537,1.6537,0,0,1.5979,1.6014,1.6041,1.6108,1.614,1.6187,1.6174,1.6224,1.6259,1.6268,1.6331,1.6358,1.6407,1.6475,1.6507,1.6499,1.6608,1.6579,1.6582,1.6586,1.6625,1.6634,1.6642,1.654,1.654,1.6539,0,0,1.6034,1.6065,1.6114,1.6146,1.6194,1.6217,1.6229,1.6278,1.6296,1.636,1.6368,1.6411,1.6494,1.6528,1.6557,1.6626,1.663,1.6641,1.6668,1.6707,1.6714,1.6721,1.6746,1.6755,1.6647,1.6647,1.6647,0,1.6049,1.6118,1.6139,1.6189,1.6219,1.6228,1.6279,1.631,1.6372,1.6393,1.6382,1.6487,1.652,1.6597,1.6614,1.6637,1.6652,1.6635,1.6711,1.6718,1.6724,1.6749,1.6758,1.6648,1.6648,1.6648,1.6648,0,1.6135,1.6184,1.6218,1.6276,1.631,1.636,1.639,1.6422,1.6433,1.6457,1.6522,1.6563,1.6619,1.6638,1.6649,1.6717,1.6711,1.6706,1.6687,1.6734,1.6757,1.6767,1.665,1.6649,1.6649,1.6649,0,0,1.6193,1.6263,1.6275,1.6302,1.6356,1.6395,1.6446,1.65,1.6527,1.657,1.6614,1.6685,1.668,1.6712,1.6728,1.6762,1.6815,1.6753,1.6754,1.6763,1.6894,1.6897,1.6908,1.6818,1.682,1.6822,1.689,0,1.6254,1.6344,1.6365,1.6443,1.6489,1.6499,1.6544,1.6583,1.6607,1.665,1.6677,1.6727,1.6717,1.6737,1.6771,1.6801,1.6842,1.6797,1.6861,1.6863,1.6848,1.692,1.6924,1.6986,1.6899,1.6901,1.6902,0,1.6337,1.6381,1.6463,1.6512,1.6532,1.6572,1.6623,1.6664,1.6709,1.6725,1.6761,1.6773,1.6828,1.6807,1.6884,1.6853,1.6881,1.69,1.6903,1.691,1.6885,1.6929,1.7007,1.7016,1.6917,1.6915,1.6914,0,1.6372,1.6451,1.6511,1.6533,1.6592,1.662,1.6646,1.6689,1.6721,1.6766,1.6787,1.6839,1.6867,1.6908,1.6934,1.6916,1.701,1.699,1.7025,1.7024,1.7044,1.7042,1.7127,1.7062,1.7062,1.7061,1.7061,0,1.6438,1.6488,1.6527,1.6563,1.662,1.6644,1.67,1.6727,1.6766,1.6809,1.6821,1.6862,1.6894,1.6939,1.6961,1.7022,1.7035,1.7049,1.7054,1.7048,1.7046,1.7067,1.7063,1.7064,1.7063,1.7063,1.7063,0,1.6485,1.6513,1.6579,1.6629,1.6643,1.6683,1.6726,1.6763,1.6788,1.6842,1.6857,1.6896,1.695,1.698,1.7048,1.7063,1.7131,1.7134,1.7115,1.7118,1.715,1.7147,1.7251,1.7267,1.7191,1.7192,1.7192,0,1.6525,1.6563,1.6618,1.6647,1.6673,1.672,1.6752,1.6778,1.6811,1.6866,1.6897,1.6951,1.6996,1.7083,1.7118,1.7171,1.7175,1.7208,1.7183,1.7176,1.7176,1.7174,1.7178,1.7213,1.7213,1.7214,1.7214,0,1.6593,1.6605,1.665,1.67,1.6738,1.6779,1.6819,1.6843,1.6876,1.6913,1.6968,1.7003,1.7072,1.7127,1.7183,1.7211,1.7219,1.7222,1.7233,1.7227,1.7214,1.7222,1.7127,1.7219,1.7219,1.7218,1.7218,1.7218,1.6638,1.6673,1.6717,1.6767,1.68,1.6838,1.6875,1.6905,1.6951,1.7008,1.7022,1.708,1.7126,1.7201,1.7231,1.7278,1.7272,1.7288,1.7292,1.7295,1.7297,1.7207,1.7289,1.7289,1.7288,1.7288,1.7288,0,1.6707,1.6736,1.6782,1.6838,1.6878,1.6881,1.6926,1.6959,1.701,1.7052,1.7096,1.716,1.7213,1.7253,1.7308,1.7338,1.7343,1.7351,1.7349,1.7356,1.7299,1.7284,1.7346,1.7346,1.7346,1.7346,1.7346,1.7346,1.6748,1.6807,1.6825,1.6902,1.6931,1.6987,1.7013,1.7049,1.7082,1.7152,1.7196,1.7222,1.7263,1.7321,1.7371,1.7382,1.7401,1.741,1.7421,1.7366,1.736,1.7354,1.734,1.7414,1.7414,1.7474,1.7475,1.7475]},{"header":{"parameterUnit":"m.s-1","parameterCategory":1,"la1":30.2991,"la2":30.254,"lo1":-89.0895,"lo2":-89.0444,"dy":0.0017,"dx":0.0017,"nx":28,"ny":28,"refTime":"2025-12-25T09:00:00:Z","depth":0,"parameterNumber":3,"parameterNumberName":"V-component_of_WINDS"},"data":[0,0,0,0,0,0,0,0,0,0,0,0,0,0,0,0,0,0,0,0,0,0,0,0,0,0,0,0,0,0,0,0,0,0,0,0,0,0,0,0,0,0,0,0,0,0,0,0,0,0,0,0,0,0,0,0,0,0,1.3297,1.3297,0,1.3293,1.3293,1.3293,1.3293,1.3293,1.3293,1.3293,1.3286,1.3286,1.3286,0,0,0,0,0,0,0,0,0,0,0,0,0,1.3304,1.3304,1.3297,1.3297,1.3297,1.3293,1.3293,1.3293,1.3293,1.3293,1.3293,1.3293,1.3286,1.3286,1.3286,0,0,0,0,0,0,0,0,0,0,0,0,0,1.33,1.3304,1.3297,1.3297,1.3297,1.3293,1.3293,1.3293,1.3293,1.3293,1.3293,1.3293,1.3286,1.3286,1.3286,1.3282,0,0,1.3285,1.3284,0,0,0,0,0,0,0,0,1.3301,1.33,1.3297,1.3297,1.3297,1.3294,1.3293,1.3289,1.3293,1.3294,1.3293,1.3293,1.3288,1.3288,1.3287,1.3281,1.3281,1.3284,1.3284,1.3284,1.3284,0,0,0,0,0,0,0,1.3301,1.33,1.3296,1.3297,1.3297,1.3296,1.3296,1.3292,1.3291,1.3294,1.3294,1.3294,1.3288,1.3287,1.3287,1.3281,1.3285,1.3284,1.3284,1.3284,1.3273,1.3273,0,0,0,0,0,0,1.3301,1.3301,1.3296,1.3296,1.3299,1.3296,1.3296,1.3295,1.3291,1.3291,1.3294,1.3294,1.3288,1.3287,1.3286,1.3282,1.3284,1.3284,1.3284,1.3273,1.3273,1.3273,0,0,0,0,0,0,1.3302,1.3301,1.3296,1.3298,1.3297,1.3296,1.3295,1.3295,1.3293,1.3291,1.329,1.3293,1.3288,1.3287,1.3283,1.3282,1.3284,1.3283,1.3273,1.3273,1.3273,1.3273,0,0,0,0,0,0,1.3302,1.3301,1.33,1.3298,1.3297,1.3293,1.3295,1.3294,1.3293,1.3293,1.329,1.3289,1.3288,1.3284,1.3283,1.3281,1.3283,1.3273,1.3273,1.3273,1.3273,1.3273,1.3272,0,0,0,0,0,1.3302,1.3299,1.33,1.3299,1.3296,1.3293,1.3293,1.3292,1.3293,1.3291,1.329,1.3289,1.3282,1.3283,1.3282,1.3281,1.3273,1.3273,1.3273,1.3273,1.3273,1.3272,0,0,0,0,0,0,1.3299,1.3299,1.3299,1.3296,1.3295,1.3293,1.3291,1.3292,1.3289,1.3289,1.3288,1.3287,1.3283,1.3282,1.3283,1.3277,1.3278,1.3277,1.3278,1.3278,1.3278,1.3278,1.3283,0,0,0,0,0,1.3299,1.3297,1.3297,1.3294,1.3293,1.3292,1.3291,1.3291,1.3289,1.3288,1.3286,1.3284,1.3282,1.328,1.3277,1.3273,1.3272,1.3271,1.3271,1.3271,1.327,1.3269,1.3268,1.3272,1.3272,1.3272,0,0,1.3296,1.3296,1.3295,1.3293,1.3292,1.329,1.3292,1.329,1.3288,1.3288,1.3284,1.3283,1.328,1.3277,1.3275,1.3275,1.327,1.3271,1.3271,1.327,1.3269,1.3268,1.3268,1.3272,1.3272,1.3272,0,0,1.3292,1.3291,1.3289,1.3289,1.3288,1.3288,1.3287,1.3286,1.3286,1.3283,1.3283,1.3281,1.3276,1.3274,1.3273,1.327,1.3269,1.3269,1.3267,1.3266,1.3266,1.3265,1.3264,1.3264,1.3268,1.3268,1.3268,0,1.3289,1.3287,1.3288,1.3286,1.3286,1.3287,1.3285,1.3284,1.3281,1.3281,1.3281,1.3277,1.3275,1.3271,1.327,1.3269,1.3269,1.3269,1.3266,1.3266,1.3265,1.3264,1.3264,1.3268,1.3268,1.3268,1.3268,0,1.3284,1.3282,1.3281,1.328,1.328,1.3277,1.3278,1.3277,1.3277,1.3277,1.3274,1.3272,1.327,1.3269,1.3269,1.3266,1.3266,1.3266,1.3267,1.3265,1.3264,1.3264,1.3268,1.3268,1.3268,1.3268,0,0,1.3276,1.3277,1.3277,1.3277,1.3277,1.3275,1.3274,1.3273,1.3272,1.3271,1.3269,1.3266,1.3267,1.3265,1.3265,1.3264,1.3262,1.3264,1.3264,1.3264,1.3259,1.3259,1.3258,1.3262,1.3262,1.3262,1.3259,0,1.3271,1.3269,1.3271,1.3268,1.3267,1.3269,1.3268,1.3267,1.3267,1.3266,1.3266,1.3264,1.3265,1.3264,1.3263,1.3262,1.3261,1.3263,1.326,1.326,1.326,1.3258,1.3257,1.3255,1.3259,1.3259,1.3259,0,1.3265,1.3265,1.3263,1.3264,1.3264,1.3263,1.3263,1.3262,1.3261,1.3262,1.3261,1.3261,1.326,1.3261,1.3258,1.326,1.3259,1.3258,1.3258,1.3258,1.3259,1.3257,1.3254,1.3253,1.3258,1.3258,1.3258,0,1.326,1.3259,1.3258,1.3258,1.326,1.3259,1.326,1.326,1.3259,1.3259,1.3259,1.3258,1.3257,1.3256,1.3256,1.3257,1.3254,1.3255,1.3254,1.3254,1.3252,1.3252,1.3249,1.3252,1.3252,1.3252,1.3252,0,1.3254,1.3252,1.3256,1.3255,1.3254,1.3256,1.3255,1.3255,1.3255,1.3255,1.3256,1.3255,1.3256,1.3255,1.3255,1.3253,1.3253,1.3252,1.3252,1.3252,1.3252,1.3251,1.3251,1.3252,1.3252,1.3252,1.3252,0,1.3247,1.325,1.3249,1.3251,1.3252,1.3251,1.3252,1.3251,1.3252,1.3252,1.3251,1.3252,1.3252,1.3252,1.3251,1.3251,1.3249,1.3249,1.3249,1.3249,1.3248,1.3248,1.3243,1.3243,1.3247,1.3247,1.3247,0,1.3243,1.3242,1.3245,1.3246,1.3246,1.3246,1.3247,1.3249,1.3249,1.325,1.3249,1.3249,1.3248,1.3247,1.3247,1.3247,1.3247,1.3245,1.3246,1.3247,1.3247,1.3247,1.3247,1.3245,1.3245,1.3245,1.3245,0,1.3236,1.3238,1.3238,1.324,1.3241,1.3241,1.3242,1.3242,1.3245,1.3245,1.3245,1.3245,1.3245,1.3244,1.3244,1.3244,1.3245,1.3245,1.3244,1.3244,1.3244,1.3244,1.3248,1.3244,1.3244,1.3244,1.3244,1.3244,1.323,1.323,1.3233,1.3234,1.3235,1.3237,1.3237,1.3238,1.3239,1.3239,1.3241,1.3241,1.3241,1.3242,1.3242,1.3241,1.3242,1.3241,1.3241,1.3241,1.3241,1.3245,1.3241,1.3241,1.3241,1.3241,1.3241,0,1.3223,1.3225,1.3227,1.3229,1.323,1.3232,1.3234,1.3234,1.3235,1.3236,1.3236,1.3237,1.3237,1.3238,1.3238,1.3238,1.3238,1.3238,1.3238,1.3238,1.324,1.3241,1.3238,1.3238,1.3238,1.3238,1.3238,1.3238,1.322,1.322,1.3222,1.3223,1.3225,1.3226,1.3227,1.3228,1.323,1.3231,1.3231,1.3233,1.3234,1.3235,1.3235,1.3235,1.3235,1.3234,1.3235,1.3237,1.3237,1.3238,1.3238,1.3234,1.3234,1.3232,1.3232,1.3232]}]]